User: anonymous   Login
Location: Unspecified
(0.0000°N, 0.0000°E)
Time: 12:52:01
(UTC+00:00)
Language:

METEOR-M - Orbit

View from above orbital plane
View from above orbital plane
View from above satellite
View from above satellite

Ground track
Ground track

The orbit data is extracted from the following two-line orbital elements,

1 35865U 09049A   15109.17454837  .00000141  00000-0  82663-4 0  9999
2 35865 098.5065 151.6126 0001901 307.3721 052.7294 14.22012919289827
Epoch (UTC): 19 April 2015 04:11:20
Eccentricity: 0.0001901
inclination: 98.5065°
perigee height: 817 km
apogee height: 820 km
right ascension of ascending node: 151.6126°
argument of perigee: 307.3721°
revolutions per day: 14.22012919
mean anomaly at epoch: 52.7294°
orbit number at epoch: 28982

The dashed part of the orbit path shows where the satellite is in the earth's shadow,  

DLR